Location: Complexul Astronomic Baia Mare
(47.6577°N, 23.5639°E)
Time: 05:50:29
(UTC+03:00)

ISS - Pass Details

Date: 21 March 2017
Orbit: 399 x 409 km, 51.6° (Epoch: 30 March)

Event Time Altitude Azimuth Distance (km) Brightness Sun altitude
Exits shadow 05:36:20 13° 270° (W) 1,300 -1.9 -9.3°
Maximum altitude 05:38:35 25° 219° (SW) 871 -2.6 -8.9°
Drops below altitude 10° 05:41:21 10° 162° (SSE) 1,469 -0.9 -8.4°
Sets 05:43:39 0° 148° (SSE) 2,327 0.3 -8.1°
